This demonstration page uses our WeatherBlox Daily Observations layout. Learn more.

Hourly Observations for January 29, 2016

Temp ( °F °C ) Dew Point ( °F °C ) Humidity (%) Winds ( mph kmh ) Pressure ( in mb ) Visibility ( mi km ) Precip ( " mm )
12:15 am 00:15 Clear 39 4 32 0 75 75 SSW 7 11 29.88 1012 10 16.09344 0 0
12:35 am 00:35 Clear 37 3 30 -1 75 75 SSW 7 11 29.88 1012 10 16.09344 0 0
12:55 am 00:55 Clear 37 3 32 0 81 81 SSW 7 11 29.85 1011 10 16.09344 0 0
1:15 am 01:15 Clear 37 3 30 -1 75 75 SSW 9 15 29.85 1011 10 16.09344 0 0
1:35 am 01:35 Clear 37 3 30 -1 75 75 SSW 9 15 29.85 1011 10 16.09344 0 0
1:55 am 01:55 Clear 37 3 30 -1 75 75 SSW 8 13 29.85 1011 10 16.09344 0 0
2:15 am 02:15 Clear 37 3 30 -1 75 75 SSW 8 13 29.85 1011 10 16.09344 0 0
2:35 am 02:35 Clear 37 3 30 -1 75 75 S 8 13 29.85 1011 10 16.09344 0 0
2:55 am 02:55 Clear 37 3 28 -2 70 70 SSW 10 17 29.85 1011 10 16.09344 0 0
3:15 am 03:15 Clear 37 3 28 -2 70 70 SSW 10 17 29.85 1011 10 16.09344 0 0
3:35 am 03:35 Clear 37 3 28 -2 70 70 SW 9 15 29.83 1010 10 16.09344 0 0
3:55 am 03:55 Clear 37 3 28 -2 70 70 SW 8 13 29.83 1010 10 16.09344 0 0
4:15 am 04:15 Clear 37 3 27 -3 65 65 SW 8 13 29.83 1010 10 16.09344 0 0
4:35 am 04:35 Clear 36 2 27 -3 70 70 SW 8 13 29.83 1010 10 16.09344 0 0
4:55 am 04:55 Clear 36 2 27 -3 70 70 SW 9 15 29.8 1009 10 16.09344 0 0
5:15 am 05:15 Clear 36 2 27 -3 70 70 SSW 7 11 29.8 1009 10 16.09344 0 0
5:35 am 05:35 Clear 36 2 27 -3 70 70 SW 8 13 29.8 1009 10 16.09344 0 0
5:55 am 05:55 Clear 36 2 25 -4 65 65 SW 8 13 29.8 1009 10 16.09344 0 0
6:15 am 06:15 Clear 36 2 25 -4 65 65 SSW 6 9 29.77 1008 10 16.09344 0 0
6:35 am 06:35 Clear 34 1 25 -4 70 70 SW 5 7 29.8 1009 10 16.09344 0 0
6:55 am 06:55 Clear 34 1 25 -4 70 70 Calm 29.8 1009 10 16.09344 0 0
7:15 am 07:15 Clear 34 1 25 -4 70 70 SSW 5 7 29.8 1009 10 16.09344 0 0
7:35 am 07:35 Clear 32 0 25 -4 75 75 SSW 3 6 29.77 1008 10 16.09344 0 0
7:55 am 07:55 Sunny 32 0 25 -4 75 75 SW 6 9 29.83 1010 10 16.09344 0 0
8:15 am 08:15 Sunny 32 0 25 -4 75 75 SW 6 9 29.83 1010 10 16.09344 0 0
8:35 am 08:35 Sunny 34 1 25 -4 70 70 SW 5 7 29.77 1008 10 16.09344 0 0
8:55 am 08:55 Sunny 36 2 27 -3 70 70 SW 5 7 29.77 1008 10 16.09344 0 0
9:15 am 09:15 Sunny 41 5 27 -3 57 57 WSW 5 7 29.74 1007 10 16.09344 0 0
9:35 am 09:35 Sunny 43 6 27 -3 53 53 WSW 6 9 29.74 1007 10 16.09344 0 0
9:55 am 09:55 Sunny 45 7 27 -3 49 49 W 8 13 29.71 1006 10 16.09344 0 0
10:15 am 10:15 Sunny 46 8 28 -2 50 50 W 10 17 29.71 1006 10 16.09344 0 0
10:35 am 10:35 Sunny 48 9 28 -2 46 46 W 9 15 29.71 1006 10 16.09344 0 0
10:55 am 10:55 Sunny 50 10 30 -1 47 47 W 10 17 29.68 1005 10 16.09344 0 0
11:15 am 11:15 Sunny 52 11 32 0 47 47 W 10 17 29.68 1005 10 16.09344 0 0
11:35 am 11:35 Sunny 57 14 30 -1 36 36 WNW 21 33 29.65 1004 10 16.09344 0 0
11:55 am 11:55 Sunny 57 14 30 -1 36 36 WNW 17 28 29.65 1004 10 16.09344 0 0
12:15 pm 12:15 Sunny 57 14 30 -1 36 36 NW 26 43 29.65 1004 10 16.09344 0 0
12:35 pm 12:35 Sunny 57 14 30 -1 36 36 NW 18 30 29.65 1004 10 16.09344 0 0
12:55 pm 12:55 Sunny 57 14 30 -1 36 36 NW 23 37 29.62 1003 10 16.09344 0 0
1:15 pm 13:15 Sunny 57 14 32 0 39 39 NNW 16 26 29.62 1003 10 16.09344 0 0
1:35 pm 13:35 Sunny 57 14 32 0 39 39 NNW 21 33 29.62 1003 10 16.09344 0 0
1:55 pm 13:55 Sunny 57 14 32 0 39 39 NNW 18 30 29.62 1003 10 16.09344 0 0
2:15 pm 14:15 Sunny 55 13 32 0 41 41 N 18 30 29.62 1003 10 16.09344 0 0
2:35 pm 14:35 Sunny 55 13 34 1 44 44 N 24 39 29.62 1003 10 16.09344 0 0
2:55 pm 14:55 Sunny 54 12 36 2 51 51 N 18 30 29.68 1005 10 16.09344 0 0
3:15 pm 15:15 Sunny 55 13 36 2 47 47 N 21 33 29.62 1003 10 16.09344 0 0
3:35 pm 15:35 Sunny 54 12 36 2 51 51 N 21 33 29.68 1005 10 16.09344 0 0
3:55 pm 15:55 Sunny 55 13 36 2 47 47 N 15 24 29.65 1004 10 16.09344 0 0
4:15 pm 16:15 Sunny 54 12 36 2 51 51 N 18 30 29.71 1006 10 16.09344 0 0
4:35 pm 16:35 Sunny 52 11 36 2 54 54 N 13 20 29.74 1007 10 16.09344 0 0
4:55 pm 16:55 Sunny 52 11 36 2 54 54 N 9 15 29.71 1006 10 16.09344 0 0
5:15 pm 17:15 Sunny 50 10 36 2 58 58 N 7 11 29.77 1008 10 16.09344 0 0
5:35 pm 17:35 Sunny 48 9 36 2 62 62 NNW 3 6 29.77 1008 10 16.09344 0 0
5:55 pm 17:55 Clear 46 8 34 1 62 62 NW 5 7 29.77 1008 10 16.09344 0 0
6:15 pm 18:15 Clear 43 6 34 1 71 71 NW 3 6 29.83 1010 10 16.09344 0 0
6:35 pm 18:35 Clear 41 5 32 0 70 70 Calm 29.83 1010 10 16.09344 0 0
6:55 pm 18:55 Clear 39 4 32 0 75 75 Calm 29.83 1010 10 16.09344 0 0
7:15 pm 19:15 Clear 39 4 32 0 75 75 Calm 29.83 1010 10 16.09344 0 0
7:35 pm 19:35 Clear 39 4 32 0 75 75 Calm 29.8 1009 10 16.09344 0 0
7:55 pm 19:55 Clear 37 3 32 0 81 81 Calm 29.83 1010 10 16.09344 0 0
8:15 pm 20:15 Clear 37 3 34 1 87 87 Calm 29.83 1010 10 16.09344 0 0
8:35 pm 20:35 Clear 34 1 30 -1 87 87 NW 3 6 29.85 1011 10 16.09344 0 0
8:55 pm 20:55 Clear 34 1 30 -1 87 87 WNW 6 9 29.85 1011 10 16.09344 0 0
9:15 pm 21:15 Clear 32 0 30 -1 93 93 Calm 29.88 1012 10 16.09344 0 0
9:35 pm 21:35 Clear 32 0 28 -2 87 87 WNW 3 6 29.88 1012 10 16.09344 0 0
9:55 pm 21:55 Clear 32 0 30 -1 93 93 Calm 29.88 1012 10 16.09344 0 0
10:15 pm 22:15 Clear 34 1 30 -1 87 87 Calm 29.85 1011 10 16.09344 0 0
10:35 pm 22:35 Clear 30 -1 28 -2 93 93 W 5 7 29.88 1012 10 16.09344 0 0
10:55 pm 22:55 Clear 34 1 32 0 93 93 Calm 29.83 1010 10 16.09344 0 0
11:15 pm 23:15 Clear 34 1 30 -1 87 87 SSW 3 6 29.8 1009 10 16.09344 0 0
11:35 pm 23:35 Clear 34 1 30 -1 87 87 Calm 29.83 1010 10 16.09344 0 0
11:55 pm 23:55 Clear 34 1 30 -1 87 87 Calm 29.8 1009 10 16.09344 0 0

Powered by AerisWeather